FREGAT DEB, 46111

Orbit data source: Space-Track

FREGAT DEB, 46111 is space debris in LEO originally from a launch on Mon, 18 Jul 2011 UTC launched from the Tyuratam Missile And Space Complex (TTMTR). Debris objects in space refer to the collection of defunct objects orbiting the Earth. Examples of debris include non-operational satellites, rocket bodies, and fragments generated from explosions, collisions, or faulty payload assembly.

Loading next visibility...
Identifier
46111, 2011-037JW
Orbit
LEO
Country
Flag of CISCIS
Related business
Manufacturer
Lavochkin
Mission
Spacecraft
Bus & Motor
Unknown
Mass
Unknown
Launch date (UTC)
2011-07-18 (14 years ago)
Launch vehicle
Unknown
Launch site
Tyuratam Missile And Space Complex (TTMTR)
Object type
Payload
Rocket body
Debris
Shape & HBR
Unknown shape, 0.1 m
Radar Cross Section
Small (<0.1 m²)

Expand to show TLE details & history
Last TLE update: 1 day ago

TLE from 1 day ago
0 FREGAT DEB
1 46111U 11037JW  25340.01279505  .00009025  00000-0  25027+0 0  9999
2 46111  50.7485 196.6072 1298814 155.6309 211.1901 10.15928823156171
Epoch: 2025-12-06T00:18Z
TLE epoch observation values (Epoch: 2025-12-06T00:18:25.492Z)
Latitude
0.00004°
Longitude
116.95438°
Altitude
3,662.871 km
Speed
5.929 km/s
True Right ascension
13h 06m 25s
True Declination
0° 00' 00"
Sunlit
Object was in daylight at epoch
Visualization orbit readout
Latitude
Unknown
Longitude
Unknown
Altitude
Unknown
Speed
Unknown
Apparent Right ascension
Unknown
Apparent Declination
Unknown
Sunlit
N/A
Visualization observer readout
Local Sidereal Time
06:24:44
Azimuth
Unknown
Elevation
Unknown
Doppler factor
Unknown
Orbital elements
Apogee altitude
3,797.238 km
Perigee altitude
1,457.892 km
Semi-major axis
9,005.702 km
Eccentricity
0.12988
Inclination
50.7485°
RAAN
196.6072°
Arg. of periapsis
155.6309°
True anomaly
204.44128°
Mean anomaly
211.1901°
Eccentric anomaly
207.72772°
Mean motion
2.53961 °/min
Orbital period
141.75 mins
BSTAR
0.25027
Loading maneuver chart data...
Computing Atmospheric mass density...
Loading historical data...
Loading historical data...
Loading historical data...
Loading historical data...
Loading historical data...
Loading historical data...
Loading historical data...

Documentation

Showing up to 5 results
|